User: anonymous   Login
Location: Killam
(52.7910°N, 111.8608°W)
Time: 05:00:41
(UTC+00:00)
Language:

UNISAT 6 - Orbit

View from above orbital plane
View from above orbital plane
View from above satellite
View from above satellite

Ground track
Ground track

The orbit is defined by the following mean orbital elements,

1 40012U          26066.38650689 +.00000000 +00000-0 +55159-3 0 00003
2 40012  97.7724 221.0127 0046265  45.3615 315.1359 14.87618735    04
Epoch (UTC): 07 March 2026 09:16:34
Eccentricity: 0.0046265
inclination: 97.7724°
perigee height: 573 km
apogee height: 638 km
right ascension of ascending node: 221.0127°
argument of perigee: 45.3615°
revolutions per day: 14.87618735
mean anomaly at epoch: 315.1359°

The dashed part of the orbit path shows where the satellite is in the earth's shadow,  

DLR